Total_Precipitation_Accumulation
1.41 1.40 1.41 1.42 1.53 1.68 1.83 2.09 2.30 2.21 1.93 1.67 1.66 1.61 1.55 1.59 1.79 1.54 1.41 1.44 1.30 1.19 1.19 1.18 1.19 1.22 1.24 1.21 1.22 1.29 1.39 1.55 1.79 1.98 2.14 2.33 2.47 2.58
1.32 1.27 1.25 1.25 1.31 1.37 1.49 1.67 1.95 2.12 1.95 1.60 1.56 1.51 1.47 1.41 1.63 1.44 1.44 1.46 1.23 1.06 0.99 0.98 1.01 1.07 1.07 1.04 1.05 1.09 1.15 1.24 1.42 1.62 1.84 2.02 2.17 2.32
1.18 1.19 1.20 1.22 1.27 1.24 1.30 1.43 1.62 1.83 1.94 1.74 1.59 1.52 1.48 1.52 1.53 1.42 1.34 1.24 1.14 1.08 0.94 0.88 0.89 0.97 0.97 0.95 0.98 0.99 1.02 1.12 1.27 1.43 1.62 1.82 1.97 2.07
1.11 1.18 1.18 1.19 1.23 1.24 1.29 1.37 1.51 1.72 1.87 1.91 1.73 1.58 1.52 1.51 1.53 1.47 1.22 1.10 1.08 1.16 0.99 0.88 0.81 0.80 0.89 0.87 0.88 0.93 1.00 1.09 1.19 1.30 1.45 1.60 1.72 1.79
1.05 1.12 1.15 1.19 1.19 1.21 1.27 1.33 1.46 1.59 1.79 1.88 1.78 1.65 1.57 1.50 1.60 1.50 1.36 1.40 1.16 1.10 1.01 0.93 0.86 0.84 1.05 1.07 0.86 0.85 0.90 1.01 1.09 1.16 1.27 1.37 1.44 1.48
0.90 1.01 1.08 1.11 1.10 1.18 1.24 1.32 1.41 1.58 1.72 1.80 1.71 1.60 1.55 1.55 1.64 1.66 1.58 1.50 1.36 1.08 1.06 0.99 0.96 0.98 1.29 1.79 1.28 0.97 0.93 0.98 1.06 1.12 1.14 1.14 1.14 1.15
0.79 0.87 0.94 0.95 0.94 1.01 1.03 1.16 1.33 1.51 1.62 1.71 1.67 1.62 1.56 1.67 1.70 1.62 1.56 1.54 1.41 1.25 1.22 1.10 1.21 1.49 2.00 2.60 2.11 1.48 1.25 1.13 1.06 1.09 1.11 1.09 1.03 0.98
0.86 0.87 0.82 0.82 0.79 0.76 0.82 0.92 1.11 1.35 1.56 1.67 1.64 1.64 1.60 1.65 1.76 1.72 1.67 1.68 1.63 1.36 1.29 1.25 1.44 2.18 2.80 3.09 2.63 1.81 1.49 1.27 1.14 1.15 1.19 1.15 1.01 0.91
0.92 0.89 0.76 0.72 0.83 0.85 0.86 0.87 0.98 1.11 1.36 1.61 1.68 1.60 1.60 1.66 1.82 1.87 1.78 1.75 1.70 1.46 1.47 1.48 1.67 2.46 2.71 2.83 2.64 1.87 1.57 1.41 1.34 1.39 1.36 1.16 0.96 0.85
0.74 0.81 0.88 0.90 0.84 0.87 0.88 0.99 1.06 1.16 1.24 1.37 1.58 1.52 1.48 1.59 1.72 1.76 1.71 1.65 1.58 1.44 1.46 1.62 1.81 2.32 2.31 2.41 2.44 1.92 1.62 1.49 1.43 1.43 1.38 1.16 0.96 0.84
0.57 0.62 0.69 0.74 0.74 0.81 0.93 1.10 1.15 1.26 1.26 1.42 1.45 1.39 1.40 1.44 1.41 1.46 1.70 1.84 1.74 1.46 1.34 1.50 1.71 2.00 2.05 2.12 2.03 1.85 1.67 1.56 1.44 1.38 1.27 1.05 0.91 0.86
0.60 0.67 0.64 0.58 0.63 0.76 0.96 1.19 1.32 1.37 1.45 1.60 1.58 1.55 1.46 1.43 1.34 1.38 1.67 1.88 1.82 1.58 1.31 1.35 1.50 1.69 1.94 1.90 1.75 1.63 1.67 1.70 1.58 1.50 1.33 1.03 0.81 0.76
0.65 0.73 0.73 0.62 0.57 0.65 0.85 1.08 1.25 1.29 1.51 1.76 1.64 1.48 1.43 1.39 1.36 1.36 1.50 1.60 1.56 1.45 1.22 1.31 1.50 1.61 1.73 1.77 1.71 1.68 1.61 1.62 1.63 1.68 1.55 1.23 0.90 0.70
0.71 0.71 0.70 0.66 0.62 0.70 0.85 1.02 1.15 1.34 1.55 1.66 1.46 1.29 1.20 1.18 1.22 1.18 1.15 1.16 1.21 1.19 1.13 1.26 1.52 1.69 1.70 1.58 1.67 1.67 1.66 1.67 1.66 1.70 1.69 1.51 1.20 0.98
0.63 0.68 0.64 0.61 0.71 0.92 1.04 1.14 1.30 1.53 1.59 1.46 1.32 1.19 1.08 1.09 1.06 1.04 1.03 1.06 1.04 0.92 0.87 0.99 1.25 1.46 1.58 1.56 1.60 1.60 1.70 1.88 1.86 1.82 1.76 1.59 1.38 1.16
0.59 0.72 0.76 0.77 0.93 1.14 1.28 1.38 1.49 1.57 1.44 1.31 1.23 1.11 0.97 1.03 1.07 1.04 1.13 1.15 1.13 1.06 0.95 0.95 1.07 1.26 1.39 1.40 1.54 1.65 1.70 2.06 2.14 1.94 1.88 1.81 1.56 1.32
0.56 0.74 0.88 0.92 1.05 1.20 1.33 1.41 1.46 1.47 1.39 1.27 1.19 1.09 1.00 0.98 0.95 0.90 0.99 1.06 1.10 1.13 1.11 1.07 1.09 1.14 1.21 1.29 1.48 1.61 1.73 1.98 2.10 1.89 1.77 1.86 1.74 1.47
0.63 0.89 0.97 0.96 1.01 1.11 1.23 1.33 1.32 1.29 1.24 1.25 1.24 1.19 1.08 0.97 0.93 0.89 0.90 0.98 1.06 1.05 1.04 1.02 1.00 1.02 1.13 1.23 1.41 1.53 1.56 1.74 1.79 1.65 1.46 1.53 1.69 1.50
0.67 0.88 0.97 1.01 1.05 1.09 1.12 1.15 1.20 1.22 1.16 1.16 1.17 1.11 0.99 0.92 0.90 0.91 0.90 0.95 0.98 0.93 0.86 0.79 0.79 0.86 1.00 1.30 1.46 1.50 1.48 1.48 1.46 1.45 1.35 1.25 1.38 1.37
0.65 0.83 0.93 0.99 1.04 1.09 1.08 1.05 1.09 1.12 1.07 1.00 1.00 0.99 0.93 0.90 0.90 0.91 0.91 0.88 0.87 0.82 0.78 0.71 0.67 0.75 0.90 1.13 1.50 1.65 1.43 1.23 1.16 1.25 1.26 1.21 1.31 1.34
0.58 0.69 0.80 0.88 0.90 0.92 0.96 0.97 1.01 1.05 0.99 0.94 0.95 0.98 0.97 0.93 0.87 0.78 0.73 0.66 0.71 0.74 0.73 0.74 0.72 0.66 0.66 0.78 1.07 1.36 1.40 1.26 1.10 1.08 1.09 1.15 1.18 1.09
0.54 0.65 0.73 0.77 0.77 0.73 0.74 0.78 0.83 0.85 0.86 0.89 0.90 0.88 0.84 0.81 0.74 0.66 0.65 0.66 0.70 0.73 0.72 0.69 0.65 0.63 0.67 0.79 0.95 1.12 1.21 1.11 1.03 1.02 0.99 0.94 0.90 0.94
0.57 0.62 0.66 0.68 0.68 0.64 0.62 0.62 0.66 0.71 0.74 0.76 0.80 0.79 0.73 0.69 0.64 0.58 0.56 0.54 0.55 0.57 0.61 0.65 0.68 0.67 0.69 0.71 0.74 0.84 0.92 0.92 0.85 0.84 0.93 0.94 0.86 0.91